^^
Paulen-Weather Station Historical Data
Daily Summary for July 21, 2022 Units:  Metric    English   Both
Daily Weekly Monthly Yearly Custom
  High: Low: Average:
Temperature: 18 °C 18 °C 18 °C
Dew Point: 17 °C 17 °C 17 °C
Humidity: 96% 94% 95%
Wind Speed: 9km/h 1km/h 4.7km/h
Wind Gust: 8km/h - -
Wind- - SW
Pressure: 1012.7 hPa 1011.89 hPa -
Precipitation: 0 mm    
Historical Graphs
 
 
Tabular Data for July 21, 2022
Time Temperature Dew Point Pressure Wind Wind Speed Wind Gust Humidity Rainfall Rate (Hourly) solar
00:04 18 °C 17 °C 1012.63 hPa SSW 7 km/h 8 km/h 94% 0 mm 0 W/m2
00:09 18 °C 17 °C 1012.7 hPa SSW 9 km/h 7 km/h 94% 0 mm 0 W/m2
00:14 18 °C 17 °C 1012.67 hPa SSW 5 km/h 6 km/h 94% 0 mm 0 W/m2
00:19 18 °C 17 °C 1012.56 hPa SW 7 km/h 7 km/h 94% 0 mm 0 W/m2
00:24 18 °C 17 °C 1012.5 hPa SSW 5 km/h 4 km/h 94% 0 mm 0 W/m2
00:29 18 °C 17 °C 1012.39 hPa W 5 km/h 3 km/h 94% 0 mm 0 W/m2
00:34 18 °C 17 °C 1012.19 hPa W 5 km/h 3 km/h 94% 0 mm 0 W/m2
00:39 18 °C 17 °C 1012.23 hPa WSW 3 km/h 3 km/h 94% 0 mm 0 W/m2
00:44 18 °C 17 °C 1012.26 hPa SW 2 km/h 2 km/h 94% 0 mm 0 W/m2
00:49 18 °C 17 °C 1012.39 hPa SSW 5 km/h 5 km/h 95% 0 mm 0 W/m2
00:54 18 °C 17 °C 1012.33 hPa S 5 km/h 3 km/h 95% 0 mm 0 W/m2
00:59 18 °C 17 °C 1012.26 hPa S 4 km/h 4 km/h 95% 0 mm 0 W/m2
01:04 18 °C 17 °C 1012.12 hPa WNW 4 km/h 5 km/h 94% 0 mm 0 W/m2
01:09 18 °C 17 °C 1012.19 hPa ESE 4 km/h 4 km/h 94% 0 mm 0 W/m2
01:14 18 °C 17 °C 1012.36 hPa S 5 km/h 4 km/h 94% 0 mm 0 W/m2
01:19 18 °C 17 °C 1012.46 hPa S 5 km/h 5 km/h 95% 0 mm 0 W/m2
01:24 18 °C 17 °C 1012.33 hPa SSW 4 km/h 3 km/h 95% 0 mm 0 W/m2
01:29 18 °C 17 °C 1012.23 hPa SW 2 km/h 3 km/h 95% 0 mm 0 W/m2
01:34 18 °C 17 °C 1012.16 hPa NW 4 km/h 3 km/h 94% 0 mm 0 W/m2
01:39 18 °C 17 °C 1012.16 hPa NW 3 km/h 3 km/h 95% 0 mm 0 W/m2
01:44 18 °C 17 °C 1012.09 hPa NW 2 km/h 3 km/h 95% 0 mm 0 W/m2
01:49 18 °C 17 °C 1011.89 hPa NW 3 km/h 2 km/h 95% 0 mm 0 W/m2
01:54 18 °C 17 °C 1011.95 hPa NW 2 km/h 1 km/h 95% 0 mm 0 W/m2
01:59 18 °C 17 °C 1012.06 hPa NW 1 km/h 2 km/h 95% 0 mm 0 W/m2
02:04 18 °C 17 °C 1012.02 hPa NW 2 km/h 1 km/h 95% 0 mm 0 W/m2
02:09 18 °C 17 °C 1012.12 hPa W 2 km/h 2 km/h 95% 0 mm 0 W/m2
02:14 18 °C 17 °C 1012.06 hPa WSW 2 km/h 3 km/h 95% 0 mm 0 W/m2
02:19 18 °C 17 °C 1012.02 hPa SW 4 km/h 3 km/h 95% 0 mm 0 W/m2
02:24 18 °C 17 °C 1012.12 hPa SSW 6 km/h 5 km/h 95% 0 mm 0 W/m2
02:29 18 °C 17 °C 1012.12 hPa S 5 km/h 5 km/h 95% 0 mm 0 W/m2
02:34 18 °C 17 °C 1012.09 hPa S 5 km/h 4 km/h 95% 0 mm 0 W/m2
02:39 18 °C 17 °C 1012.26 hPa SSW 5 km/h 4 km/h 95% 0 mm 0 W/m2
02:44 18 °C 17 °C 1012.29 hPa S 4 km/h 4 km/h 95% 0 mm 0 W/m2
02:49 18 °C 17 °C 1012.43 hPa SW 5 km/h 4 km/h 96% 0 mm 0 W/m2
02:54 18 °C 17 °C 1012.43 hPa S 5 km/h 4 km/h 96% 0 mm 0 W/m2
02:59 18 °C 17 °C 1012.26 hPa SSE 5 km/h 4 km/h 96% 0 mm 0 W/m2
03:04 18 °C 17 °C 1012.33 hPa S 6 km/h 6 km/h 96% 0 mm 0 W/m2
03:09 18 °C 17 °C 1012.33 hPa SSW 7 km/h 7 km/h 96% 0 mm 0 W/m2
03:14 18 °C 17 °C 1012.33 hPa SSW 7 km/h 6 km/h 96% 0 mm 0 W/m2
03:19 18 °C 17 °C 1012.39 hPa SSW 8 km/h 7 km/h 96% 0 mm 0 W/m2
03:24 18 °C 17 °C 1012.33 hPa SSW 7 km/h 6 km/h 96% 0 mm 0 W/m2
03:29 18 °C 17 °C 1012.39 hPa SSW 7 km/h 6 km/h 96% 0 mm 0 W/m2
03:34 18 °C 17 °C 1012.39 hPa SW 6 km/h 5 km/h 96% 0 mm 0 W/m2
03:39 18 °C 17 °C 1012.29 hPa SSW 7 km/h 7 km/h 96% 0 mm 0 W/m2
03:44 18 °C 17 °C 1012.36 hPa S 6 km/h 6 km/h 96% 0 mm 0 W/m2
Compliments of Weather Underground - 2 mb